[[{"header":{"parameterUnit":"m.s-1","parameterCategory":1,"la1":30.2991,"la2":30.254,"lo1":-89.0895,"lo2":-89.0444,"dy":0.0017,"dx":0.0017,"nx":28,"ny":28,"refTime":"2023-08-07T21:00:00:Z","depth":0,"parameterNumber":2,"parameterNumberName":"U-component_of_WINDS"},"data":[0,0,0,0,0,0,0,0,0,0,0,0,0,0,0,0,0,0,0,0,0,0,0,0,0,0,0,0,0,0,0,0,0,0,0,0,0,0,0,0,0,0,0,0,0,0,0,0,0,0,0,0,0,0,0,0,0,0,1.6754,1.6755,0,1.6849,1.685,1.6851,1.6849,1.6848,1.6847,1.6845,1.6949,1.6953,1.6957,0,0,0,0,0,0,0,0,0,0,0,0,0,1.6575,1.6578,1.6754,1.6755,1.6756,1.6849,1.685,1.6852,1.6849,1.6848,1.6846,1.6845,1.6948,1.6952,1.6957,0,0,0,0,0,0,0,0,0,0,0,0,0,1.666,1.658,1.6753,1.6766,1.6768,1.6849,1.685,1.6852,1.685,1.6848,1.6846,1.6844,1.6946,1.6952,1.6958,1.7034,0,0,1.6976,1.6978,0,0,0,0,0,0,0,0,1.6655,1.6667,1.6763,1.6765,1.6768,1.6835,1.6825,1.6913,1.685,1.6819,1.6845,1.6843,1.6913,1.6922,1.6944,1.7039,1.7043,1.6976,1.698,1.6983,1.6984,0,0,0,0,0,0,0,1.6649,1.6662,1.6792,1.6764,1.6767,1.6769,1.6779,1.6842,1.6876,1.6822,1.6822,1.6833,1.6914,1.6938,1.6946,1.7044,1.6976,1.6982,1.6985,1.6988,1.7207,1.7209,0,0,0,0,0,0,1.664,1.6658,1.6788,1.6794,1.6705,1.6774,1.6785,1.6816,1.6875,1.6882,1.6834,1.6832,1.6929,1.6939,1.695,1.7043,1.6983,1.6988,1.6992,1.7205,1.7208,1.721,0,0,0,0,0,0,1.6636,1.6652,1.6785,1.6726,1.6743,1.6779,1.6814,1.6819,1.6843,1.6885,1.6891,1.6852,1.6928,1.6942,1.7013,1.7047,1.6991,1.6996,1.7202,1.7206,1.7209,1.7229,0,0,0,0,0,0,1.6631,1.665,1.6678,1.6727,1.6746,1.6844,1.6816,1.6822,1.6852,1.685,1.6903,1.691,1.6927,1.7004,1.7019,1.7054,1.7001,1.7199,1.7204,1.7208,1.7226,1.7233,1.7239,0,0,0,0,0,1.6625,1.6681,1.6679,1.6695,1.6781,1.6846,1.6857,1.6874,1.6855,1.6884,1.6911,1.6909,1.704,1.7011,1.7028,1.7065,1.7197,1.7203,1.7208,1.7223,1.7232,1.7239,0,0,0,0,0,0,1.6637,1.6688,1.6686,1.676,1.6798,1.6845,1.6882,1.6883,1.6929,1.6925,1.6946,1.6958,1.7029,1.7055,1.7021,1.7142,1.7117,1.7126,1.7123,1.7132,1.7138,1.713,1.7006,0,0,0,0,0,1.6648,1.6695,1.6737,1.6798,1.6817,1.6846,1.6875,1.6885,1.6926,1.6943,1.6975,1.7017,1.7068,1.7101,1.7151,1.723,1.7242,1.7264,1.7271,1.7276,1.7283,1.7327,1.7338,1.7227,1.7227,1.7227,0,0,1.6672,1.6705,1.6734,1.6801,1.6832,1.6881,1.686,1.6913,1.695,1.6952,1.702,1.7046,1.7094,1.7169,1.7204,1.7193,1.7317,1.7282,1.7286,1.7291,1.7334,1.7344,1.7353,1.723,1.723,1.7229,0,0,1.674,1.677,1.6824,1.6855,1.6902,1.6921,1.6934,1.6981,1.6998,1.7066,1.7068,1.7114,1.7201,1.7236,1.7264,1.7347,1.7346,1.7363,1.7397,1.744,1.7449,1.7457,1.7486,1.7497,1.737,1.737,1.737,0,1.6764,1.6837,1.6852,1.6905,1.6935,1.6937,1.6993,1.7023,1.7084,1.7106,1.7092,1.7201,1.7234,1.7317,1.7337,1.7361,1.7377,1.7356,1.7446,1.7454,1.7462,1.749,1.7501,1.7371,1.7371,1.7371,1.7371,0,1.6864,1.6915,1.6953,1.701,1.7045,1.7099,1.7124,1.7158,1.7165,1.7186,1.7257,1.7296,1.7353,1.7374,1.7382,1.746,1.7451,1.7441,1.7416,1.7474,1.7501,1.7512,1.7374,1.7373,1.7373,1.7372,0,0,1.6942,1.7007,1.7021,1.7047,1.7099,1.7139,1.7195,1.7249,1.7277,1.732,1.7368,1.7441,1.7433,1.7466,1.7478,1.7516,1.7578,1.7502,1.7503,1.7514,1.7667,1.7673,1.7685,1.7579,1.7581,1.7583,1.7662,0,1.7016,1.7111,1.7127,1.7212,1.7259,1.7262,1.7311,1.7349,1.7371,1.7415,1.7441,1.7492,1.7477,1.7497,1.7534,1.7563,1.7609,1.7557,1.7624,1.7626,1.7611,1.7699,1.7706,1.7779,1.7673,1.7675,1.7676,0,1.7114,1.7157,1.7246,1.7292,1.7312,1.7355,1.7406,1.7449,1.7493,1.7507,1.7543,1.7551,1.761,1.7583,1.7665,1.7629,1.7658,1.7676,1.768,1.7686,1.7654,1.7708,1.7803,1.7813,1.7693,1.7692,1.769,0,1.7161,1.7242,1.7306,1.7328,1.7384,1.7414,1.7439,1.748,1.7512,1.7558,1.7579,1.7632,1.7661,1.7703,1.7725,1.7703,1.7806,1.778,1.782,1.7819,1.7841,1.7839,1.7941,1.786,1.786,1.786,1.786,0,1.7241,1.7295,1.7328,1.7367,1.7428,1.7447,1.7508,1.7533,1.757,1.7615,1.7623,1.7665,1.7692,1.774,1.7758,1.7824,1.7837,1.785,1.7854,1.7849,1.7847,1.7868,1.7863,1.7863,1.7862,1.7862,1.7861,0,1.7304,1.7328,1.7397,1.7444,1.7457,1.75,1.7541,1.758,1.7602,1.7659,1.7674,1.7709,1.7765,1.7792,1.7862,1.7874,1.7948,1.795,1.7933,1.7934,1.7972,1.7968,1.809,1.8107,1.8015,1.8016,1.8017,0,1.7353,1.7394,1.7445,1.7475,1.75,1.7549,1.7581,1.7602,1.7636,1.769,1.7722,1.7778,1.7824,1.7913,1.7946,1.8,1.8002,1.8042,1.801,1.8004,1.8002,1.7999,1.8003,1.8047,1.8048,1.8048,1.8049,0,1.7437,1.7447,1.7492,1.7542,1.758,1.7621,1.7661,1.7685,1.7713,1.7751,1.7807,1.7842,1.7913,1.7969,1.8025,1.8053,1.8056,1.8059,1.8071,1.8065,1.8053,1.806,1.7947,1.8056,1.8055,1.8054,1.8054,1.8054,1.7494,1.7531,1.7573,1.7623,1.7656,1.7693,1.7732,1.7758,1.7805,1.7863,1.7874,1.7934,1.7978,1.8053,1.8083,1.8131,1.8122,1.814,1.8144,1.8148,1.8149,1.8046,1.8142,1.8142,1.8142,1.8141,1.8141,0,1.7578,1.7605,1.7652,1.7707,1.7747,1.7746,1.779,1.7824,1.7876,1.7917,1.7961,1.8026,1.8081,1.8118,1.8173,1.8205,1.8208,1.8219,1.8216,1.8223,1.8154,1.8138,1.8215,1.8215,1.8215,1.8215,1.8215,1.8215,1.7627,1.7689,1.7704,1.7784,1.7811,1.7868,1.7894,1.7929,1.7962,1.8033,1.8078,1.8101,1.8141,1.8199,1.825,1.8259,1.8279,1.829,1.83,1.8235,1.8227,1.822,1.8205,1.8295,1.8295,1.8364,1.8364,1.8365]},{"header":{"parameterUnit":"m.s-1","parameterCategory":1,"la1":30.2991,"la2":30.254,"lo1":-89.0895,"lo2":-89.0444,"dy":0.0017,"dx":0.0017,"nx":28,"ny":28,"refTime":"2023-08-07T21:00:00:Z","depth":0,"parameterNumber":3,"parameterNumberName":"V-component_of_WINDS"},"data":[0,0,0,0,0,0,0,0,0,0,0,0,0,0,0,0,0,0,0,0,0,0,0,0,0,0,0,0,0,0,0,0,0,0,0,0,0,0,0,0,0,0,0,0,0,0,0,0,0,0,0,0,0,0,0,0,0,0,3.9742,3.9742,0,3.9806,3.9806,3.9807,3.9815,3.9815,3.9814,3.9814,3.9874,3.9876,3.9879,0,0,0,0,0,0,0,0,0,0,0,0,0,3.9619,3.9622,3.9742,3.9742,3.9743,3.9805,3.9806,3.9807,3.9815,3.9815,3.9814,3.9813,3.9874,3.9876,3.9879,0,0,0,0,0,0,0,0,0,0,0,0,0,3.9677,3.9622,3.9741,3.9755,3.9757,3.9805,3.9806,3.9807,3.9816,3.9815,3.9814,3.9813,3.9873,3.9876,3.9879,3.9917,0,0,3.9889,3.9891,0,0,0,0,0,0,0,0,3.9673,3.9681,3.9752,3.9754,3.9756,3.9802,3.9786,3.9844,3.9816,3.9793,3.9814,3.9812,3.9851,3.9856,3.9869,3.992,3.9923,3.9889,3.9891,3.9893,3.9894,0,0,0,0,0,0,0,3.9669,3.9678,3.9767,3.9753,3.9756,3.9755,3.9763,3.9797,3.9826,3.9795,3.9796,3.9803,3.9851,3.9866,3.9871,3.9924,3.9889,3.9892,3.9894,3.9896,4.0004,4.0005,0,0,0,0,0,0,3.9664,3.9675,3.9765,3.9769,3.9712,3.9758,3.9766,3.9788,3.9826,3.9831,3.9804,3.9804,3.9861,3.9867,3.9873,3.9917,3.9893,3.9896,3.9898,4.0003,4.0004,4.0005,0,0,0,0,0,0,3.9661,3.9672,3.9762,3.9722,3.9734,3.9761,3.9785,3.979,3.9804,3.9833,3.9837,3.9814,3.9861,3.9868,3.9906,3.992,3.9897,3.99,4.0002,4.0004,4.0005,4.0008,0,0,0,0,0,0,3.9658,3.9671,3.9688,3.9723,3.9736,3.9796,3.9786,3.9791,3.9811,3.9811,3.9843,3.9848,3.9861,3.9901,3.9909,3.9924,3.9903,4.0001,4.0003,4.0004,4.0007,4.001,4.0012,0,0,0,0,0,3.9653,3.9686,3.9688,3.9699,3.9758,3.9797,3.9804,3.9819,3.9812,3.9827,3.9845,3.9847,3.9917,3.9904,3.9914,3.993,4.0,4.0002,4.0004,4.0006,4.0009,4.0012,0,0,0,0,0,0,3.9651,3.9691,3.9694,3.9739,3.9765,3.9798,3.9818,3.9823,3.985,3.9848,3.9864,3.9872,3.9907,3.9922,3.9908,3.9967,3.9958,3.9962,3.9956,3.9959,3.9961,3.9956,3.9906,0,0,0,0,0,3.9656,3.9686,3.9719,3.9755,3.9768,3.9791,3.9808,3.9818,3.9844,3.9854,3.9875,3.9899,3.9926,3.9943,3.997,4.0009,4.0015,4.0025,4.0027,4.0029,4.0032,4.005,4.0054,4.0012,4.0012,4.0012,0,0,3.9666,3.9691,3.971,3.9755,3.9776,3.9804,3.98,3.9831,3.9851,3.9859,3.9895,3.991,3.9937,3.9975,3.9992,3.9989,4.0044,4.0031,4.0033,4.0035,4.0053,4.0057,4.006,4.0014,4.0013,4.0013,0,0,3.9699,3.9722,3.9754,3.9774,3.9806,3.982,3.9828,3.986,3.9871,3.9908,3.9912,3.9936,3.9983,4.0002,4.0017,4.0053,4.0055,4.0061,4.0073,4.0091,4.0094,4.0097,4.0108,4.0111,4.0064,4.0064,4.0064,0,3.9707,3.9752,3.9769,3.9799,3.9818,3.9826,3.9856,3.9875,3.9913,3.9924,3.992,3.9977,3.9996,4.0036,4.0045,4.0058,4.0064,4.0057,4.0093,4.0096,4.0099,4.0109,4.0113,4.0064,4.0064,4.0064,4.0064,0,3.9759,3.979,3.9811,3.9848,3.9869,3.9899,3.9918,3.9936,3.9943,3.9957,3.9992,4.0015,4.0045,4.0055,4.0062,4.0096,4.0092,4.009,4.0081,4.0103,4.0112,4.0117,4.0065,4.0065,4.0065,4.0065,0,0,3.9793,3.9837,3.9845,3.986,3.9894,3.9917,3.9946,3.9976,3.999,4.0015,4.0038,4.0076,4.0074,4.0091,4.01,4.0116,4.0139,4.0111,4.0112,4.0114,4.0174,4.0174,4.0178,4.0141,4.0141,4.0142,4.0171,0,3.9828,3.9881,3.9896,3.994,3.9966,3.9973,3.9998,4.002,4.0033,4.0056,4.007,4.0096,4.0092,4.0102,4.0118,4.0133,4.0151,4.0131,4.0159,4.016,4.0151,4.0184,4.0185,4.0211,4.0175,4.0175,4.0176,0,3.9876,3.9902,3.9949,3.9977,3.9988,4.0011,4.0038,4.006,4.0084,4.0092,4.011,4.0117,4.0144,4.0134,4.017,4.0156,4.0168,4.0177,4.0178,4.018,4.0169,4.0185,4.022,4.0223,4.0182,4.0182,4.0181,0,3.9893,3.994,3.9973,3.9986,4.002,4.0035,4.0049,4.0072,4.0088,4.0112,4.0122,4.0147,4.0161,4.0179,4.0191,4.0183,4.0225,4.0217,4.023,4.023,4.0238,4.0237,4.0274,4.0248,4.0248,4.0248,4.0248,0,3.9929,3.9957,3.9981,4.0001,4.0031,4.0046,4.0075,4.0089,4.0109,4.013,4.0138,4.0157,4.0172,4.0193,4.0202,4.0229,4.0236,4.0241,4.0243,4.024,4.0239,4.0247,4.0245,4.0249,4.0249,4.0249,4.0249,0,3.9953,3.997,4.0007,4.0035,4.0043,4.0063,4.0087,4.0105,4.0118,4.0145,4.0152,4.0171,4.0195,4.021,4.024,4.0246,4.0275,4.0277,4.0268,4.0268,4.028,4.0278,4.0322,4.0327,4.03,4.03,4.0301,0,3.9974,3.9995,4.0026,4.0041,4.0056,4.0081,4.0097,4.0112,4.0128,4.0155,4.0169,4.0194,4.0215,4.0253,4.0269,4.0291,4.0293,4.0306,4.0296,4.0291,4.029,4.0288,4.0289,4.0308,4.0308,4.0308,4.0308,0,4.0009,4.0016,4.004,4.0067,4.0086,4.0107,4.0128,4.014,4.0157,4.0175,4.02,4.0216,4.0247,4.0271,4.0294,4.0307,4.0309,4.0311,4.0315,4.0312,4.0305,4.0307,4.0271,4.031,4.031,4.031,4.031,4.031,4.0031,4.0049,4.0073,4.0098,4.0116,4.0134,4.0153,4.0167,4.0189,4.0216,4.0223,4.0249,4.0269,4.0301,4.0314,4.0332,4.033,4.0336,4.0338,4.0339,4.0338,4.0303,4.0337,4.0337,4.0337,4.0337,4.0337,0,4.0064,4.0079,4.0103,4.0132,4.0151,4.0154,4.0176,4.0191,4.0215,4.0234,4.0254,4.0281,4.0304,4.0321,4.0343,4.0355,4.0356,4.036,4.0358,4.0361,4.034,4.0333,4.0358,4.0358,4.0358,4.0358,4.0358,4.0358,4.0083,4.0114,4.0123,4.016,4.0175,4.0201,4.0214,4.023,4.0245,4.0276,4.0295,4.0306,4.0323,4.0347,4.0366,4.0371,4.0378,4.0381,4.0385,4.0365,4.0362,4.036,4.0354,4.0382,4.0383,4.0404,4.0404,4.0404]}]]